Weather in L.F. Wade International Airport

Bermuda     32°21′35″N   64°42′04″W
temp.,
°C
wind,
m/s
gust,
m/s
humid.,
%
clouds,
%
prec.,
mm/h
press.,
hPa
HPBL,
m
13 may, thu
thu1300:00+22ssw7109039 0.9 1020336
03:00+22sw9149099 1.1 1018510
06:00+22sw10159035 0.3 1017630
09:00+22sw101489100 2.1 1018597
12:00+23wsw91385100 1.9 1017555
15:00+22w81189100 4.1 1017531
18:00+22nw7988100 1.5 1016500
21:00+21nw4585100 2.1 1018524
14 may, fri
fri1400:00+20sse1189100 2.1 1018172
03:00+20sse3387100 3.9 1016297
06:00+20wsw1181100 0.2 1016236
09:00+20nw2379100 0.4 1017408
12:00+21nnw3378100 0.0 1018589
15:00+21nne3377100 0.0 1017610
18:00+21nne3378100 0.0 1017584
21:00+21ene4479100 0.1 1018611
15 may, sat
sat1500:00+21ene101084100 0.4 1018823
03:00+21ene101183100 1.8 1017803
06:00+20ene101083100 1.9 1017861
09:00+21ene11128090 3.4 1018957
12:00+21ene101079100 0.6 1018921
15:00+20ene9981100 1.2 1017871
18:00+20ne8987100 2.8 1017689
21:00+19nne16178097 7.3 1018935
16 may, sun
sun1600:00+19nne121472100 0.2 10191145
03:00+18nne8977100 0.6 10181002
06:00+19nne997396 0.8 10191186
09:00+19nne10107340 1.1 10211156
12:00+19nne1011615 0.1 10221412
15:00+19nne99677 0.1 10231300
18:00+20nne99656 0.1 10231409
21:00+20nne99599 0.2 10241504
17 may, mon
mon1700:00+20ne78560 0.0 10241596
03:00+20ne77560 0.0 10241671
06:00+20ne77566 0.0 10241651
09:00+20ne66552 0.0 10261564
12:00+20ne555723 0.0 10261166
15:00+20ne446327 0.0 10251096
18:00+20e3365100 0.1 1025927
21:00+20e446476 0.1 10261081